Regional Weather Roundup
Issued by NWS

Home | Current Version | Previous Version | Text Only | Print | Product List | Glossary Off
Versions: 1 2 3 4 5 6 7 8 9 10 11 12 13 14 15 16 17 18 19 20 21 22 23 24 25 26 27 28 29 30 31 32 33 34 35 36 37 38 39 40 41 42 43 44 45 46 47 48 49 50

000
ASUS45 KSLC 181010
RWRUT

UTAH REGIONAL WEATHER ROUNDUP
NATIONAL WEATHER SERVICE SALT LAKE CITY UT
300 AM MST THU DEC 18 2014

UTZ001>011-023>025-181100-

NORTHERN UTAH

CITY           SKY/WX    TMP DP  RH WIND       PRES   REMARKS
BRIGHAM CITY   CLOUDY    29  25  88 SE5       30.08S WCI  23
HILL AFB       PTCLDY    30  25  80 E10       30.07R WCI  21
LOGAN          CLOUDY    31  27  85 E7        30.07R WCI  24
OGDEN          CLOUDY    29  25  85 S8        30.07R WCI  21
PROVO AIRPORT  MOCLDY    34  30  86 SE7       30.09S WCI  28
SALT LAKE CITY PTCLDY    31  29  92 SE6       30.07R WCI  25
VERNAL         CLOUDY    25  23  92 S3        30.12R
WENDOVER       CLEAR     25  21  86 CALM      30.08R
HEBER CITY     CLOUDY    30  25  80 CALM      30.07R
WEST JORDAN    MOCLDY    30  30 100 S7        30.08R WCI  23

$$

UTZ012>022-026-027-181100-

SOUTHERN/CENTRAL UTAH

CITY           SKY/WX    TMP DP  RH WIND       PRES   REMARKS
BLANDING       CLOUDY    32  32 100 CALM      30.16S
BRYCE CANYON   CLOUDY    22  20  92 CALM      30.07R
CEDAR CITY     CLOUDY    33  31  92 S6        30.06S WCI  28
DELTA          MOCLDY    32  31  94 CALM      30.07R
MILFORD        CLOUDY    35  32  88 SW10      30.06S WCI  27
MOAB/CYNLANDS  CLOUDY    33  33 100 W3        30.08R FOG
PRICE          CLOUDY    26  22  84 NW3       30.06R
ST GEORGE      CLOUDY    45  37  76 CALM      30.12S
KANAB          CLOUDY    34  34 100 NW7       30.14R WCI  28

$$

REGIONAL REPORTS     COLORADO/ARIZONA

CITY           SKY/WX    TMP DP  RH WIND       PRES   REMARKS
CRAIG, CO      CLOUDY    26  24  92 W3        30.08R FOG
GRAND JUNCTION LGT RAIN  33  33 100 N6        30.08R WCI  28
RIFLE          LGT SNOW  32  32 100 W3        30.06R FOG
MONTROSE       CLOUDY    33  32  96 CALM      30.09R FOG
CORTEZ         LGT SNOW  33  32  96 CALM      30.10R FOG
PAGE, AZ       CLOUDY    38  33  82 W3        30.09S
GRAND CANYON   LGT SNOW  31  30  96 CALM      30.10S FOG
KINGMAN        CLOUDY    40  37  89 SE3       30.10S
FLAGSTAFF      LGT SNOW  30  27  88 S6        30.09S FOG     WCI  24

$$

REGIONAL REPORTS    NEVADA/IDAHO/WYOMING

CITY           SKY/WX    TMP DP  RH WIND       PRES   REMARKS
LAS VEGAS, NV  CLOUDY    49  43  80 S7        30.05R
ELY            MOCLDY    22  20  92 S8        30.07R WCI  12
ELKO           CLOUDY    27  25  92 NE5       30.07R WCI  22
POCATELLO, ID  CLEAR     22  22 100 CALM      30.07R FOG
BURLEY         CLEAR     26  22  84 SW7       30.05R WCI  18
EVANSTON, WY   PTCLDY    22  19  89 SW6       30.04R WCI  14
ROCK SPRINGS   PTCLDY    20  15  81 SW10      30.03R WCI   9
KEMMERER       PTCLDY    21  18  86 CALM      30.02S

$$


USA.gov is the U.S. government's official web portal to all federal, state and local government web resources and services.